Tracking 29034 objects as of 25-Jun-2024
HD Live streaming from Space Station
objects crossing your sky now

IRS P4 (OCEANSAT 1)

Track IRS P4 (OCEANSAT 1) now!
10-day predictions
IRS P4 (OCEANSAT 1) is classified as:


NORAD ID: 25758
Int'l Code: 1999-029C
Perigee: 719.2 km
Apogee: 721.7 km
Inclination: 97.9 °
Period: 99.1 minutes
Semi major axis: 7091 km
RCS: 3.5411 m2 (large)
Launch date: May 26, 1999
Source: India (IND)
Launch site: SRIHARIKOTA (SRI)

Transmits image of its own view; not currently used for scientific mission but operational.
Your satellite tracking list
Your tracking list is empty




NASA's NSSDC Master Catalog

Two Line Element Set (TLE):
1 25758U 99029C   24176.60712166  .00000572  00000-0  14617-3 0  9991
2 25758  97.8990 175.6334 0001793 219.9758 140.1308 14.53793989329066
Source of the keplerian elements: AFSPC